Fort Bridger, WY

6:36 PM MST on February 25, 2017 (GMT -0700)
Fort Bridger

Weather History for KFBR - April, 2014

Change the Weather History Date:

Saturday, April 12, 2014

  Actual Average (KEMM) Record (KEMM)
Temperature  
Mean Temperature 51 °F -  
Max Temperature 63 °F 49 °F 73 °F (1988)
Min Temperature 39 °F 22 °F 0 °F (1984)
Degree Days  
Heating Degree Days 14    
Growing Degree Days 1 (Base 50)    
Moisture  
Dew Point 23 °F    
Average Humidity 36    
Maximum Humidity 55    
Minimum Humidity 20    
Precipitation  
Precipitation 0.00 in - - ()
Sea Level Pressure  
Sea Level Pressure 29.85 in    
Wind  
Wind Speed 12 mph (West)    
Max Wind Speed 30 mph    
Max Gust Speed 38 mph    
Visibility 10 miles    
Events Thunderstorm    
Averages and records for this station are not official NWS values.
T = Trace of Precipitation, MM = Missing Value Source: NWS Daily Summary

Daily Weather History Graph

Daily Weather History Graph

Search for Another Location

Airport or City:

Trip Planner

Search our weather history database for the weather conditions in past years. The results will help you decide how hot, cold, wet, or windy it might be!

Date:

Astronomy

Apr. 12, 2014 Rise Set
Actual Time 6:46 AM MDT 7:58 PM MDT
Civil Twilight 6:18 AM MDT 8:27 PM MDT
Nautical Twilight 5:44 AM MDT 9:01 PM MDT
Astronomical Twilight 5:08 AM MDT 9:37 PM MDT
Moon 5:39 PM MDT (4/12) 5:16 AM MDT (4/12)
Length of Visible Light 14h 09m
Length of Day
13h 12m
Waxing Gibbous, 93% of the Moon is Illuminated
Apr 12
Waxing Gibbous
Apr 15
Full
Apr 22
Last Quarter
Apr 29
New
May 6
First Quarter

Hourly Weather History & Observations

Time (MDT) Temp. Windchill Dew Point Humidity Pressure Visibility Wind Dir Wind Speed Gust Speed Precip Events Conditions
12:15 AM 50.2 °F - 22.6 °F 34% 29.96 in 10.0 mi WSW 11.5 mph - N/A   Clear
12:35 AM 49.1 °F - 22.3 °F 35% 29.95 in 10.0 mi SW 11.5 mph - N/A   Clear
12:55 AM 50.0 °F - 21.4 °F 32% 29.95 in 10.0 mi WSW 10.4 mph - N/A   Clear
1:15 AM 46.6 °F - 22.1 °F 38% 29.94 in 10.0 mi SW 10.4 mph - N/A   Clear
1:35 AM 46.0 °F 41.4 °F 22.1 °F 39% 29.94 in 10.0 mi SW 9.2 mph - N/A   Clear
1:55 AM 48.0 °F - 21.4 °F 35% 29.93 in 10.0 mi WSW 9.2 mph - N/A   Clear
2:15 AM 46.6 °F - 21.2 °F 37% 29.92 in 10.0 mi WSW 10.4 mph - N/A   Clear
2:35 AM 44.4 °F 39.5 °F 21.2 °F 40% 29.92 in 10.0 mi WSW 9.2 mph - N/A   Clear
2:55 AM 44.8 °F 39.9 °F 21.2 °F 39% 29.91 in 10.0 mi WSW 9.2 mph - N/A   Clear
3:15 AM 43.7 °F 38.6 °F 21.2 °F 41% 29.91 in 10.0 mi WSW 9.2 mph - N/A   Clear
3:35 AM 42.3 °F 36.8 °F 21.4 °F 43% 29.90 in 10.0 mi WSW 9.2 mph - N/A   Clear
3:55 AM 43.5 °F 37.9 °F 21.4 °F 41% 29.91 in 10.0 mi WSW 10.4 mph - N/A   Clear
4:15 AM 46.2 °F 41.2 °F 20.8 °F 37% 29.90 in 10.0 mi WSW 10.4 mph - N/A   Clear
4:35 AM 44.8 °F 39.9 °F 20.8 °F 39% 29.90 in 10.0 mi West 9.2 mph - N/A   Clear
4:55 AM 43.3 °F 38.1 °F 20.7 °F 40% 29.90 in 10.0 mi West 9.2 mph - N/A   Clear
5:15 AM 42.1 °F 37.7 °F 21.0 °F 43% 29.90 in 10.0 mi WSW 6.9 mph - N/A   Clear
5:35 AM 41.7 °F 36.1 °F 21.2 °F 44% 29.89 in 10.0 mi WSW 9.2 mph - N/A   Clear
5:55 AM 42.1 °F 37.1 °F 21.0 °F 43% 29.88 in 10.0 mi WSW 8.1 mph - N/A   Clear
6:15 AM 39.4 °F 36.1 °F 21.7 °F 49% 29.89 in 10.0 mi WNW 4.6 mph - N/A   Clear
6:35 AM 39.7 °F 36.5 °F 21.6 °F 48% 29.89 in 10.0 mi WNW 4.6 mph - N/A   Clear
6:55 AM 43.3 °F 40.7 °F 21.7 °F 42% 29.88 in 10.0 mi WNW 4.6 mph - N/A   Clear
7:15 AM 41.7 °F 37.3 °F 22.1 °F 46% 29.88 in 10.0 mi WSW 6.9 mph - N/A   Clear
7:35 AM 44.2 °F 39.7 °F 23.0 °F 43% 29.88 in 10.0 mi WSW 8.1 mph - N/A   Clear
7:55 AM 46.4 °F 42.9 °F 23.7 °F 41% 29.88 in 10.0 mi WSW 6.9 mph - N/A   Clear
8:15 AM 47.8 °F - 25.0 °F 41% 29.89 in 10.0 mi WSW 6.9 mph - N/A   Clear
8:35 AM 49.6 °F - 25.5 °F 39% 29.88 in 10.0 mi SW 5.8 mph - N/A   Clear
8:55 AM 51.6 °F - 25.7 °F 37% 29.89 in 10.0 mi West 9.2 mph - N/A   Clear
9:15 AM 52.0 °F - 25.3 °F 36% 29.88 in 10.0 mi West 8.1 mph - N/A   Clear
9:35 AM 53.6 °F - 26.4 °F 35% 29.88 in 10.0 mi West 9.2 mph - N/A   Clear
9:55 AM 53.8 °F - 26.8 °F 35% 29.88 in 10.0 mi West 9.2 mph - N/A   Clear
10:15 AM 54.5 °F - 26.6 °F 34% 29.88 in 10.0 mi WSW 10.4 mph - N/A   Clear
10:35 AM 55.6 °F - 27.0 °F 33% 29.88 in 10.0 mi West 12.7 mph 16.1 mph N/A   Clear
10:55 AM 56.3 °F - 27.1 °F 33% 29.88 in 10.0 mi West 16.1 mph 20.7 mph N/A   Clear
11:15 AM 57.9 °F - 27.7 °F 32% 29.87 in 10.0 mi West 16.1 mph 24.2 mph N/A   Clear
11:35 AM 58.6 °F - 28.2 °F 31% 29.87 in 10.0 mi West 19.6 mph 27.6 mph N/A   Clear
11:55 AM 59.5 °F - 27.3 °F 29% 29.86 in 10.0 mi West 18.4 mph 27.6 mph N/A   Clear
12:15 PM 60.1 °F - 27.9 °F 29% 29.85 in 10.0 mi West 19.6 mph 27.6 mph N/A   Clear
12:55 PM 62.2 °F - 26.8 °F 26% 29.82 in 10.0 mi West 23.0 mph 29.9 mph N/A   Clear
1:15 PM 63.3 °F - 25.7 °F 24% 29.82 in 10.0 mi West 24.2 mph 33.4 mph N/A   Mostly Cloudy
1:35 PM 63.9 °F - 26.4 °F 24% 29.82 in 10.0 mi WSW 25.3 mph 35.7 mph N/A   Mostly Cloudy
1:55 PM 63.9 °F - 27.1 °F 25% 29.81 in 10.0 mi WNW 21.9 mph 33.4 mph N/A   Mostly Cloudy
2:15 PM 63.5 °F - 25.9 °F 24% 29.81 in 10.0 mi West 21.9 mph 29.9 mph N/A   Mostly Cloudy
2:35 PM 62.1 °F - 23.4 °F 23% 29.81 in 10.0 mi WNW 29.9 mph 38.0 mph N/A   Scattered Clouds
2:55 PM 62.4 °F - 20.5 °F 20% 29.81 in 10.0 mi WNW 24.2 mph 33.4 mph N/A   Scattered Clouds
3:15 PM 63.1 °F - 21.6 °F 20% 29.80 in 10.0 mi WNW 23.0 mph 31.1 mph N/A   Scattered Clouds
3:35 PM 61.2 °F - 21.2 °F 22% 29.80 in 10.0 mi WNW 24.2 mph 33.4 mph N/A   Scattered Clouds
3:55 PM 60.1 °F - 21.2 °F 22% 29.80 in 10.0 mi WNW 24.2 mph 31.1 mph N/A   Clear
4:15 PM 58.3 °F - 22.1 °F 25% 29.80 in 10.0 mi WNW 18.4 mph 32.2 mph N/A   Clear
4:35 PM 60.3 °F - 24.3 °F 25% 29.80 in 10.0 mi WNW 21.9 mph 31.1 mph N/A   Clear
4:55 PM 57.6 °F - 24.1 °F 28% 29.80 in 10.0 mi West 21.9 mph 35.7 mph N/A   Clear
5:15 PM 56.1 °F - 23.5 °F 28% 29.80 in 10.0 mi WNW 24.2 mph 31.1 mph N/A   Clear
5:35 PM 56.8 °F - 23.7 °F 28% 29.81 in 10.0 mi West 20.7 mph 29.9 mph N/A   Scattered Clouds
5:55 PM 56.1 °F - 23.7 °F 29% 29.81 in 10.0 mi West 21.9 mph 27.6 mph N/A   Scattered Clouds
6:15 PM 54.5 °F - 24.6 °F 31% 29.81 in 10.0 mi West 17.3 mph 27.6 mph N/A   Scattered Clouds
6:35 PM 52.5 °F - 25.7 °F 35% 29.81 in 10.0 mi WNW 15.0 mph 24.2 mph N/A   Scattered Clouds
6:55 PM 51.8 °F - 21.6 °F 31% 29.81 in 10.0 mi West 18.4 mph 26.5 mph N/A   Clear
7:15 PM 53.6 °F - 22.3 °F 30% 29.81 in 10.0 mi West 18.4 mph 25.3 mph N/A   Clear
7:35 PM 50.7 °F - 20.5 °F 30% 29.81 in 10.0 mi West 15.0 mph - N/A   Clear
7:55 PM 49.1 °F - 19.9 °F 32% 29.81 in 10.0 mi West 9.2 mph - N/A   Clear
8:15 PM 46.6 °F - 19.4 °F 34% 29.81 in 10.0 mi West 6.9 mph - N/A   Clear
8:35 PM 45.1 °F 42.8 °F 18.7 °F 35% 29.81 in 10.0 mi WNW 4.6 mph - N/A   Clear
8:55 PM 44.2 °F 41.0 °F 20.5 °F 39% 29.82 in 10.0 mi West 5.8 mph - N/A   Clear
9:15 PM 43.5 °F 40.1 °F 21.4 °F 41% 29.82 in 10.0 mi West 5.8 mph - N/A   Clear
9:35 PM 42.8 °F 37.5 °F 23.0 °F 46% 29.82 in 10.0 mi WSW 9.2 mph - N/A   Clear
9:55 PM 42.8 °F 37.5 °F 22.5 °F 45% 29.82 in 10.0 mi WSW 9.2 mph - N/A   Scattered Clouds
10:15 PM 43.0 °F 37.7 °F 21.7 °F 43% 29.81 in 10.0 mi WSW 9.2 mph - N/A   Clear
10:35 PM 43.5 °F 38.9 °F 21.0 °F 41% 29.80 in 10.0 mi WSW 8.1 mph - N/A   Mostly Cloudy
10:55 PM 42.4 °F 37.0 °F 21.9 °F 44% 29.80 in 10.0 mi SW 9.2 mph - N/A   Scattered Clouds
11:15 PM 42.8 °F 37.5 °F 27.5 °F 55% 29.80 in 10.0 mi WSW 9.2 mph - N/A Thunderstorm Clear
11:35 PM 44.4 °F 39.0 °F 29.3 °F 55% 29.80 in 10.0 mi WSW 10.4 mph - N/A   Clear
11:55 PM 44.6 °F 38.4 °F 29.3 °F 55% 29.80 in 10.0 mi WSW 12.7 mph - N/A   Scattered Clouds